Vorticity
6 6 7 8 11 7 5 6 7 7 5 4 3 4 6 6 5 6 6 5 4 4
7 9 10 9 5 7 6 6 4 5 5 5 6 6 4 3 4 5 5 4 3 2
9 8 6 4 5 5 5 6 6 5 5 5 4 4 4 4 5 5 5 4 2 2
6 5 5 5 4 5 7 6 4 4 5 5 4 4 4 5 6 6 4 3 3 5
5 5 6 7 6 6 6 7 7 8 7 7 6 5 4 4 5 4 3 4 6 5
5 6 6 6 5 6 8 8 8 7 7 6 5 5 4 5 5 5 5 4 4 5
6 7 8 10 11 11 10 8 7 6 6 6 6 5 6 6 5 5 6 7 8 9
9 11 11 10 9 6 6 6 6 5 5 5 5 5 5 7 9 10 9 9 9 10
14 12 8 7 5 5 4 4 4 5 6 7 9 8 8 7 7 9 9 7 6 7
7 3 3 5 6 5 6 7 7 8 9 8 8 9 9 8 8 7 7 8 10 9
4 5 5 6 7 8 9 10 10 10 9 7 6 7 7 7 7 8 8 6 5 6
5 6 7 6 7 9 9 8 5 5 6 8 7 7 8 9 8 7 6 7 8 8
7 9 10 9 10 7 5 5 9 7 8 11 11 8 8 9 8 11 16 19 21 21
10 9 6 5 9 14 10 11 11 8 5 4 5 9 17 23 22 24 22 24 26 27
Height
5751 5748 5746 5744 5742 5741 5739 5737 5736 5734 5731 5728 5726 5724 5722 5720 5718 5716 5714 5711 5709 5707
5740 5738 5736 5734 5732 5731 5729 5727 5725 5723 5720 5717 5715 5713 5711 5709 5706 5704 5702 5700 5697 5695
5729 5728 5726 5724 5721 5719 5717 5716 5713 5711 5708 5705 5703 5701 5699 5696 5694 5692 5689 5687 5685 5682
5718 5716 5714 5711 5709 5707 5705 5703 5700 5698 5695 5692 5689 5686 5684 5682 5679 5677 5675 5672 5670 5667
5706 5704 5701 5699 5696 5694 5691 5688 5686 5683 5680 5677 5674 5671 5668 5666 5664 5661 5658 5655 5653 5650
5691 5689 5687 5684 5681 5679 5676 5673 5670 5667 5663 5660 5657 5654 5651 5649 5647 5644 5640 5637 5634 5631
5677 5675 5672 5669 5665 5662 5659 5655 5652 5648 5645 5642 5639 5636 5633 5630 5627 5624 5621 5617 5613 5610
5662 5659 5656 5652 5649 5645 5642 5638 5635 5632 5628 5624 5620 5616 5613 5610 5606 5603 5600 5596 5592 5589
5646 5643 5639 5636 5632 5629 5625 5621 5617 5613 5609 5605 5599 5595 5590 5587 5583 5579 5575 5572 5568 5565
5629 5626 5622 5619 5615 5610 5606 5602 5597 5593 5588 5584 5578 5572 5567 5562 5559 5555 5551 5547 5543 5540
5611 5608 5604 5600 5595 5591 5586 5582 5577 5572 5567 5563 5556 5550 5544 5538 5534 5530 5526 5521 5516 5512
5593 5589 5585 5580 5575 5570 5566 5561 5556 5551 5546 5540 5535 5526 5518 5511 5506 5503 5499 5492 5486 5482
5574 5570 5565 5560 5555 5550 5545 5541 5534 5530 5522 5516 5511 5502 5494 5484 5476 5473 5467 5462 5456 5450
5554 5550 5545 5540 5534 5528 5521 5515 5509 5503 5498 5490 5481 5475 5463 5452 5441 5434 5429 5427 5423 5418